Date String (YYYY-MM-DD hh:mm:ss) UTC,Instrument flags,Ambient pressure (hPa),Sample flow (lpm),Bypass flow (lpm),Sample temperature (°C),Ambient temperature (°C),ASC tube jacket temperature (°C),LED temperature (°C),Box temperature (°C),Sample RH (%),Span deviation,Mass concentration (μg/m³),Mass concentration (μg/m³),Mass concentration (μg/m³)
DateTimeUTC,F1_M11,P_M11,Q1_M11,Q2_M11,T1_M11,T2_M11,T3_M11,T4_M11,T5_M11,U1_M11,ZSPAN_M11,X2_M11,X0_M11,X1_M11
2022-11-04 05:00:00,,0823.3,4.99,0.00,22.8,21.4,00.0,31.6,24.7,16.5,0000.0,0005.08,0006.32,0004.98
2022-11-04 05:01:00,,0823.4,5.00,0.00,22.8,21.4,00.0,31.6,24.7,16.5,0000.0,0005.09,0006.31,0004.99
2022-11-04 05:02:00,,0823.3,5.02,0.00,22.8,21.3,00.0,31.6,24.7,16.4,0000.0,0005.07,0006.26,0004.99
2022-11-04 05:03:00,,0823.3,4.98,0.00,22.8,21.3,00.0,31.6,24.7,16.4,0000.0,0005.07,0006.46,0004.99
2022-11-04 05:04:00,,0823.3,5.01,0.00,22.8,21.3,00.0,31.6,24.7,16.4,0000.0,0005.08,0006.56,0004.99
2022-11-04 05:05:00,,0823.3,5.01,0.00,22.8,21.3,00.0,31.6,24.7,16.4,0000.0,0005.08,0006.59,0004.99
2022-11-04 05:06:00,,0823.4,5.00,0.00,22.8,21.3,00.0,31.6,24.7,16.4,0000.0,0005.08,0006.55,0005.00
2022-11-04 05:07:00,,0823.4,5.00,0.00,22.8,21.3,00.0,31.6,24.7,16.4,0000.0,0005.08,0006.51,0005.00
2022-11-04 05:08:00,,0823.4,4.99,0.00,22.8,21.3,00.0,31.6,24.7,16.4,0000.0,0005.07,0006.48,0005.00
2022-11-04 05:09:00,,0823.4,4.99,0.00,22.8,21.3,00.0,31.6,24.7,16.4,0000.0,0005.07,0006.48,0005.00
2022-11-04 05:10:00,,0823.4,5.01,0.00,22.8,21.3,00.0,31.6,24.7,16.4,0000.0,0005.08,0006.50,0005.01
2022-11-04 05:11:00,,0823.3,5.00,0.00,22.8,21.3,00.0,31.6,24.7,16.4,0000.0,0005.08,0006.53,0005.02
2022-11-04 05:12:00,,0823.4,5.00,0.00,22.8,21.3,00.0,31.6,24.7,16.4,0000.0,0005.08,0006.51,0005.01
2022-11-04 05:13:00,,0823.3,4.99,0.00,22.8,21.3,00.0,31.6,24.7,16.4,0000.0,0005.09,0006.59,0005.02
2022-11-04 05:14:00,,0823.3,5.01,0.00,22.8,21.3,00.0,31.6,24.7,16.4,0000.0,0005.12,0006.57,0005.04
2022-11-04 05:15:00,,0823.3,5.00,0.00,22.8,21.3,00.0,31.6,24.7,16.4,0000.0,0005.14,0006.41,0005.05
2022-11-04 05:16:00,,0823.3,4.99,0.00,22.8,21.3,00.0,31.5,24.7,16.5,0000.0,0005.16,0006.45,0005.07
2022-11-04 05:17:00,,0823.4,5.00,0.00,22.8,21.2,00.0,31.5,24.7,16.5,0000.0,0005.20,0006.58,0005.09
2022-11-04 05:18:00,,0823.4,5.00,0.00,22.8,21.2,00.0,31.5,24.7,16.5,0000.0,0005.22,0006.61,0005.11
2022-11-04 05:19:00,,0823.4,5.00,0.00,22.8,21.2,00.0,31.5,24.7,16.5,0000.0,0005.25,0006.69,0005.13
2022-11-04 05:20:00,,0823.4,5.00,0.00,22.8,21.2,00.0,31.5,24.7,16.5,0000.0,0005.29,0006.76,0005.16
2022-11-04 05:21:00,,0823.4,5.00,0.00,22.8,21.2,00.0,31.5,24.7,16.5,0000.0,0005.31,0006.79,0005.17
2022-11-04 05:22:00,,0823.4,5.00,0.00,22.8,21.2,00.0,31.5,24.7,16.5,0000.0,0005.34,0006.84,0005.20
2022-11-04 05:23:00,,0823.3,5.00,0.00,22.7,21.2,00.0,31.5,24.7,16.5,0000.0,0005.37,0006.92,0005.22
2022-11-04 05:24:00,,0823.4,5.01,0.00,22.8,21.2,00.0,31.5,24.7,16.5,0000.0,0005.39,0006.92,0005.24
2022-11-04 05:25:00,,0823.4,5.00,0.00,22.7,21.2,00.0,31.5,24.6,16.5,0000.0,0005.40,0006.87,0005.26
2022-11-04 05:26:00,,0823.4,5.01,0.00,22.7,21.2,00.0,31.5,24.6,16.5,0000.0,0005.40,0006.88,0005.26
2022-11-04 05:27:00,,0823.3,5.01,0.00,22.7,21.2,00.0,31.5,24.7,16.5,0000.0,0005.41,0006.95,0005.27
2022-11-04 05:28:00,,0823.3,4.99,0.00,22.7,21.2,00.0,31.5,24.6,16.5,0000.0,0005.43,0006.95,0005.28
2022-11-04 05:29:00,,0823.3,4.99,0.00,22.7,21.2,00.0,31.5,24.6,16.5,0000.0,0005.44,0006.97,0005.29
2022-11-04 05:30:00,,0823.2,5.01,0.00,22.7,21.2,00.0,31.5,24.7,16.5,0000.0,0005.45,0006.95,0005.31
2022-11-04 05:31:00,,0823.2,5.01,0.00,22.7,21.2,00.0,31.5,24.6,16.5,0000.0,0005.47,0007.02,0005.32
2022-11-04 05:32:00,,0823.2,5.00,0.00,22.7,21.2,00.0,31.5,24.6,16.6,0000.0,0005.49,0007.12,0005.33
2022-11-04 05:33:00,,0823.2,4.98,0.00,22.7,21.2,00.0,31.5,24.6,16.6,0000.0,0005.50,0007.13,0005.34
2022-11-04 05:34:00,,0823.2,5.01,0.00,22.7,21.2,00.0,31.5,24.6,16.6,0000.0,0005.52,0007.12,0005.36
2022-11-04 05:35:00,,0823.2,5.01,0.00,22.7,21.1,00.0,31.5,24.6,16.6,0000.0,0005.52,0007.13,0005.37
2022-11-04 05:36:00,,0823.2,4.99,0.00,22.7,21.1,00.0,31.5,24.6,16.6,0000.0,0005.53,0007.14,0005.38
2022-11-04 05:37:00,,0823.2,5.01,0.00,22.7,21.3,00.0,31.5,24.7,16.5,0000.0,0005.56,0007.16,0005.41
2022-11-04 05:38:00,,0823.2,5.00,0.00,22.8,22.0,00.0,31.4,24.8,16.5,0000.0,0005.58,0007.13,0005.44
2022-11-04 05:39:00,,0823.2,5.00,0.00,22.9,22.5,00.0,31.5,24.9,16.4,0000.0,0005.58,0007.10,0005.46
2022-11-04 05:40:00,,0823.2,4.99,0.00,22.9,22.3,00.0,31.5,24.9,16.4,0000.0,0005.59,0007.09,0005.49
2022-11-04 05:41:00,,0823.2,4.99,0.00,22.9,22.2,00.0,31.5,24.9,16.4,0000.0,0005.61,0007.12,0005.51
2022-11-04 05:42:00,,0823.2,5.01,0.00,22.9,22.0,00.0,31.5,24.9,16.4,0000.0,0005.63,0007.11,0005.54
2022-11-04 05:43:00,,0823.2,5.00,0.00,22.9,21.9,00.0,31.6,24.9,16.4,0000.0,0005.64,0007.08,0005.57
2022-11-04 05:44:00,,0823.2,4.99,0.00,22.9,21.8,00.0,31.6,24.9,16.4,0000.0,0005.67,0007.12,0005.59
2022-11-04 05:45:00,,0823.2,5.01,0.00,22.9,21.8,00.0,31.6,24.9,16.4,0000.0,0005.70,0007.38,0005.62
2022-11-04 05:46:00,,0823.2,5.01,0.00,22.9,21.7,00.0,31.6,24.8,16.4,0000.0,0005.73,0007.86,0005.65
2022-11-04 05:47:00,,0823.3,4.98,0.00,22.9,21.7,00.0,31.6,24.8,16.4,0000.0,0005.77,0007.93,0005.67
2022-11-04 05:48:00,,0823.2,5.01,0.00,22.9,21.6,00.0,31.6,24.8,16.4,0000.0,0005.78,0007.94,0005.68
2022-11-04 05:49:00,,0823.2,5.01,0.00,22.9,21.6,00.0,31.6,24.8,16.4,0000.0,0005.79,0007.97,0005.69
2022-11-04 05:50:00,,0823.3,5.01,0.00,22.9,21.6,00.0,31.6,24.8,16.4,0000.0,0005.80,0007.97,0005.70
2022-11-04 05:51:00,,0823.3,4.99,0.00,22.9,21.6,00.0,31.6,24.8,16.4,0000.0,0005.84,0008.02,0005.72
2022-11-04 05:52:00,,0823.3,4.99,0.00,22.9,21.5,00.0,31.6,24.8,16.4,0000.0,0005.84,0008.01,0005.73
2022-11-04 05:53:00,,0823.2,5.00,0.00,22.9,21.5,00.0,31.6,24.8,16.4,0000.0,0005.86,0008.03,0005.75
2022-11-04 05:54:00,,0823.2,5.00,0.00,22.9,21.5,00.0,31.6,24.8,16.4,0000.0,0005.90,0008.06,0005.78
2022-11-04 05:55:00,,0823.2,5.00,0.00,22.9,21.5,00.0,31.6,24.8,16.4,0000.0,0005.94,0008.12,0005.81
2022-11-04 05:56:00,,0823.1,5.01,0.00,22.9,21.5,00.0,31.6,24.8,16.4,0000.0,0005.96,0008.06,0005.84
2022-11-04 05:57:00,,0823.1,5.00,0.00,22.9,21.5,00.0,31.6,24.8,16.4,0000.0,0005.98,0007.58,0005.86
2022-11-04 05:58:00,,0823.1,5.00,0.00,22.9,21.5,00.0,31.6,24.8,16.4,0000.0,0006.01,0007.57,0005.89
2022-11-04 05:59:00,,0823.1,4.98,0.00,22.9,21.4,00.0,31.6,24.8,16.4,0000.0,0006.04,0007.63,0005.91
